Grant County, OR

8:57 PM PDT on July 26, 2017 (GMT -0700)
Grant County Regional

Weather History for KGCD - September, 2012

Change the Weather History Date:

Friday, September 7, 2012

  Actual Average (KBNO) Record (KBNO)
Temperature  
Mean Temperature 68 °F -  
Max Temperature 87 °F 76 °F 92 °F (1958)
Min Temperature 48 °F 37 °F 25 °F (1992)
Cooling Degree Days 2    
Growing Degree Days 18 (Base 50)    
Moisture  
Dew Point 32 °F    
Average Humidity 32    
Maximum Humidity 58    
Minimum Humidity 12    
Precipitation  
Precipitation 0.00 in - - ()
Sea Level Pressure  
Sea Level Pressure 30.22 in    
Wind  
Wind Speed 4 mph (East)    
Max Wind Speed 10 mph    
Max Gust Speed -    
Visibility 10 miles    
Events      
Averages and records for this station are not official NWS values.
T = Trace of Precipitation, MM = Missing Value Source: NWS Daily Summary

Daily Weather History Graph

Daily Weather History Graph

Search for Another Location

Airport or City:

Trip Planner

Search our weather history database for the weather conditions in past years. The results will help you decide how hot, cold, wet, or windy it might be!

Date:

Astronomy

Sep. 07, 2012 Rise Set
Actual Time 6:26 AM PDT 7:20 PM PDT
Civil Twilight 5:56 AM PDT 7:49 PM PDT
Nautical Twilight 5:21 AM PDT 8:24 PM PDT
Astronomical Twilight 4:44 AM PDT 9:01 PM PDT
Moon 11:02 PM PDT (9/7) 1:39 PM PDT (9/7)
Length of Visible Light 13h 53m
Length of Day
12h 53m
Waning Gibbous, 57% of the Moon is Illuminated
Sep 7
Waning Gibbous
Sep 8
Last Quarter
Sep 15
New
Sep 22
First Quarter
Sep 29
Full

Hourly Weather History & Observations

Time (PDT) Temp. Dew Point Humidity Pressure Visibility Wind Dir Wind Speed Gust Speed Precip Events Conditions
12:15 AM 59.0 °F 35.6 °F 42% 30.17 in 10.0 mi Calm Calm - N/A   Clear
12:35 AM 60.8 °F 35.6 °F 39% 30.18 in 10.0 mi Calm Calm - N/A   Clear
12:55 AM 60.8 °F 35.6 °F 39% 30.18 in 10.0 mi Calm Calm - N/A   Clear
1:15 AM 60.8 °F 35.6 °F 39% 30.18 in 10.0 mi Calm Calm - N/A   Clear
1:35 AM 59.0 °F 35.6 °F 42% 30.18 in 10.0 mi Calm Calm - N/A   Clear
1:55 AM 55.4 °F 35.6 °F 47% 30.19 in 10.0 mi Calm Calm - N/A   Clear
2:15 AM 53.6 °F 33.8 °F 47% 30.20 in 10.0 mi East 4.6 mph - N/A   Clear
2:35 AM 51.8 °F 33.8 °F 50% 30.20 in 10.0 mi Calm Calm - N/A   Clear
2:55 AM 50.0 °F 33.8 °F 54% 30.20 in 10.0 mi East 3.5 mph - N/A   Clear
3:15 AM 50.0 °F 33.8 °F 54% 30.20 in 10.0 mi Calm Calm - N/A   Clear
3:35 AM 50.0 °F 33.8 °F 54% 30.21 in 10.0 mi East 6.9 mph - N/A   Clear
3:55 AM 50.0 °F 33.8 °F 54% 30.21 in 10.0 mi ESE 8.1 mph - N/A   Clear
4:15 AM 50.0 °F 33.8 °F 54% 30.22 in 10.0 mi East 6.9 mph - N/A   Clear
4:35 AM 50.0 °F 33.8 °F 54% 30.22 in 10.0 mi East 9.2 mph - N/A   Clear
4:55 AM 50.0 °F 33.8 °F 54% 30.23 in 10.0 mi ESE 10.4 mph - N/A   Clear
5:15 AM 50.0 °F 33.8 °F 54% 30.23 in 10.0 mi ESE 10.4 mph - N/A   Clear
5:35 AM 48.2 °F 33.8 °F 58% 30.23 in 10.0 mi ESE 10.4 mph - N/A   Clear
5:55 AM 48.2 °F 33.8 °F 58% 30.24 in 10.0 mi East 9.2 mph - N/A   Clear
6:15 AM 50.0 °F 33.8 °F 54% 30.24 in 10.0 mi ESE 10.4 mph - N/A   Clear
6:35 AM 48.2 °F 33.8 °F 58% 30.25 in 10.0 mi ESE 6.9 mph - N/A   Clear
6:55 AM 48.2 °F 33.8 °F 58% 30.25 in 10.0 mi ESE 6.9 mph - N/A   Clear
7:15 AM 50.0 °F 33.8 °F 54% 30.26 in 10.0 mi ESE 5.8 mph - N/A   Clear
7:35 AM 50.0 °F 33.8 °F 54% 30.26 in 10.0 mi SE 8.1 mph - N/A   Clear
7:55 AM 51.8 °F 33.8 °F 50% 30.27 in 10.0 mi ESE 9.2 mph - N/A   Clear
8:15 AM 53.6 °F 33.8 °F 47% 30.27 in 10.0 mi ESE 10.4 mph - N/A   Clear
8:35 AM 55.4 °F 33.8 °F 44% 30.27 in 10.0 mi ESE 5.8 mph - N/A   Clear
8:55 AM 57.2 °F 33.8 °F 41% 30.27 in 10.0 mi ESE 4.6 mph - N/A   Clear
9:15 AM 59.0 °F 35.6 °F 42% 30.27 in 10.0 mi East 4.6 mph - N/A   Clear
9:35 AM 60.8 °F 35.6 °F 39% 30.27 in 10.0 mi ESE 4.6 mph - N/A   Clear
9:55 AM 62.6 °F 35.6 °F 37% 30.27 in 10.0 mi Calm Calm - N/A   Clear
10:15 AM 64.4 °F 35.6 °F 34% 30.27 in 10.0 mi Calm Calm - N/A   Clear
10:35 AM 68.0 °F 35.6 °F 30% 30.27 in 10.0 mi Calm Calm - N/A   Clear
10:55 AM 69.8 °F 35.6 °F 28% 30.26 in 10.0 mi Calm Calm - N/A   Clear
11:15 AM 69.8 °F 35.6 °F 28% 30.26 in 10.0 mi NNE 3.5 mph - N/A   Clear
11:35 AM 71.6 °F 35.6 °F 27% 30.26 in 10.0 mi Calm Calm - N/A   Clear
11:55 AM 73.4 °F 33.8 °F 23% 30.26 in 10.0 mi Calm Calm - N/A   Clear
12:15 PM 75.2 °F 28.4 °F 18% 30.25 in 10.0 mi North 4.6 mph - N/A   Clear
12:35 PM 77.0 °F 28.4 °F 17% 30.24 in 10.0 mi Calm Calm - N/A   Clear
12:55 PM 78.8 °F 26.6 °F 15% 30.24 in 10.0 mi Calm Calm - N/A   Clear
1:15 PM 78.8 °F 26.6 °F 15% 30.23 in 10.0 mi Calm Calm - N/A   Clear
1:35 PM 82.4 °F 24.8 °F 12% 30.23 in 10.0 mi NW 5.8 mph - N/A   Clear
1:55 PM 82.4 °F 26.6 °F 13% 30.23 in 10.0 mi Calm Calm - N/A   Clear
2:15 PM 84.2 °F 28.4 °F 13% 30.22 in 7.0 mi North 4.6 mph - N/A   Clear
2:55 PM 86.0 °F 30.2 °F 13% 30.20 in 10.0 mi WNW 6.9 mph - N/A   Clear
3:15 PM 86.0 °F 30.2 °F 13% 30.19 in 10.0 mi West 5.8 mph - N/A   Clear
3:35 PM 86.0 °F 30.2 °F 13% 30.19 in 10.0 mi NW 5.8 mph - N/A   Clear
3:55 PM 86.0 °F 30.2 °F 13% 30.18 in 10.0 mi WNW 9.2 mph - N/A   Clear
4:15 PM 87.8 °F 28.4 °F 12% 30.18 in 10.0 mi NNW 8.1 mph - N/A   Clear
4:35 PM 86.0 °F 30.2 °F 13% 30.17 in 10.0 mi WNW 8.1 mph - N/A   Clear
4:55 PM 86.0 °F 28.4 °F 12% 30.17 in 10.0 mi Calm Calm - N/A   Clear
5:15 PM 86.0 °F 28.4 °F 12% 30.17 in 10.0 mi SW 4.6 mph - N/A   Clear
5:35 PM 86.0 °F 28.4 °F 12% 30.16 in 10.0 mi NNW 5.8 mph - N/A   Clear
5:55 PM 86.0 °F 28.4 °F 12% 30.16 in 10.0 mi NE 4.6 mph - N/A   Clear
6:15 PM 84.2 °F 26.6 °F 12% 30.16 in 10.0 mi NNE 8.1 mph - N/A   Clear
6:35 PM 82.4 °F 26.6 °F 13% 30.16 in 10.0 mi NNE 6.9 mph - N/A   Clear
6:55 PM 80.6 °F 26.6 °F 14% 30.16 in 10.0 mi NNE 4.6 mph - N/A   Clear
7:15 PM 78.8 °F 26.6 °F 15% 30.17 in 10.0 mi ENE 3.5 mph - N/A   Clear
7:35 PM 78.8 °F 26.6 °F 15% 30.17 in 10.0 mi ESE 4.6 mph - N/A   Clear
8:55 PM 73.4 °F 30.2 °F 20% 30.20 in 10.0 mi East 8.1 mph - N/A   Clear
9:35 PM 71.6 °F 30.2 °F 22% 30.20 in 10.0 mi ESE 6.9 mph - N/A   Clear
9:55 PM 71.6 °F 32.0 °F 23% 30.20 in 10.0 mi ESE 8.1 mph - N/A   Clear
10:15 PM 69.8 °F 32.0 °F 25% 30.20 in 10.0 mi ESE 6.9 mph - N/A   Clear
10:35 PM 69.8 °F 32.0 °F 25% 30.20 in 10.0 mi SE 6.9 mph - N/A   Clear
10:55 PM 69.8 °F 32.0 °F 25% 30.21 in 10.0 mi ESE 6.9 mph - N/A   Clear
11:15 PM 68.0 °F 32.0 °F 26% 30.20 in 10.0 mi ESE 5.8 mph - N/A   Clear
11:35 PM 68.0 °F 32.0 °F 26% 30.20 in 10.0 mi ESE 5.8 mph - N/A   Clear
11:55 PM 68.0 °F 32.0 °F 26% 30.21 in 10.0 mi ESE 5.8 mph - N/A   Clear